Probability
0 0 0 0 0 0 0 0 0 0 0 0 0 0 0 0 0 0 0 1 3 3 1 1 1 1 1 0 0 0 0 0 0 0 0 0 0 0 0 0 0 0 0 0 0 0 0 0 0
0 0 0 0 0 0 0 0 0 0 0 0 0 0 0 0 0 0 0 1 3 3 2 2 2 2 2 1 0 0 0 0 0 0 0 0 0 0 0 0 0 0 0 0 0 0 0 0 0
0 0 0 0 0 0 0 0 1 1 1 0 0 0 0 0 0 0 1 2 2 2 2 4 4 4 3 1 0 0 0 0 0 0 0 0 0 0 0 0 0 0 0 0 0 0 0 0 0
0 0 0 0 0 0 0 0 2 3 2 1 1 1 0 0 1 2 3 3 3 3 4 6 6 5 3 2 0 0 0 0 0 0 0 0 0 0 0 0 0 0 0 0 0 0 0 0 0
1 1 1 0 0 0 0 1 3 5 4 2 2 2 1 1 2 4 5 5 5 6 7 8 8 7 4 1 0 0 0 0 0 0 0 0 0 0 0 0 0 0 0 0 0 0 0 0 0
2 2 1 0 0 0 0 2 5 5 4 3 3 3 2 2 3 4 5 6 6 8 9 9 9 8 5 2 0 0 0 0 0 0 0 0 0 0 0 0 0 0 0 0 0 0 0 0 0
4 3 1 0 0 0 0 1 4 4 4 3 3 3 3 4 5 5 6 6 7 8 9 9 9 7 5 2 1 0 0 0 0 0 0 0 0 0 0 0 0 0 0 0 0 0 0 0 0
3 2 1 0 0 0 0 0 2 4 4 3 3 3 5 9 10 9 8 9 9 8 9 8 7 6 3 2 1 0 0 0 0 0 0 0 0 0 0 0 0 0 0 0 0 0 0 0 0
2 1 0 0 0 0 0 1 2 4 5 5 5 6 11 18 19 16 13 12 11 10 8 7 6 5 2 1 0 0 0 0 0 0 0 0 0 0 0 0 0 0 0 0 1 1 0 0 0
1 1 0 0 0 0 1 2 3 6 8 9 9 12 20 27 27 23 17 13 12 11 8 6 5 4 2 0 0 0 0 0 0 0 0 0 0 0 0 0 0 0 0 0 1 1 0 0 0
1 1 0 0 0 0 1 1 3 6 9 10 13 18 24 29 31 28 22 15 12 10 7 5 4 3 1 0 0 0 0 0 0 0 0 0 0 0 0 0 0 0 0 0 0 0 0 0 0
0 0 0 0 0 0 0 1 2 5 7 10 13 18 22 26 29 29 25 19 14 9 5 3 2 1 0 0 0 0 0 0 0 0 0 0 0 0 0 0 0 0 0 0 0 0 0 0 0
0 0 0 0 0 0 1 2 3 6 9 10 12 15 19 22 25 27 26 23 19 13 6 2 1 1 1 0 0 0 0 0 0 0 0 0 0 0 0 0 0 0 0 0 0 0 0 0 0
0 0 0 0 0 0 1 3 5 10 13 12 11 13 18 24 25 26 27 27 25 20 13 7 3 2 3 3 2 1 0 0 0 0 0 0 0 0 0 0 0 0 0 0 0 0 0 0 0
0 0 0 0 0 0 2 4 8 15 19 15 12 13 19 26 29 30 31 32 31 28 23 16 8 6 7 8 6 3 2 1 1 0 0 0 0 1 1 0 0 0 0 0 0 0 0 0 0
0 0 0 0 0 0 2 4 10 20 25 21 16 17 21 27 31 33 34 35 35 35 33 26 17 12 11 11 9 6 5 4 3 2 2 2 2 2 2 1 0 0 0 0 0 0 0 0 0
0 0 0 0 0 0 1 4 11 23 29 27 24 24 27 31 34 36 36 36 37 39 38 34 28 22 17 15 11 8 6 6 6 6 6 6 6 5 3 1 1 1 1 0 0 0 0 0 0
0 0 0 0 0 0 1 4 13 26 33 34 33 34 36 37 40 43 43 42 41 41 41 41 40 34 28 23 17 13 11 9 10 10 10 11 10 8 5 3 3 3 3 1 1 1 0 0 0
0 0 0 0 0 1 2 5 12 23 34 38 41 43 44 43 45 50 50 47 46 47 48 48 47 43 37 31 25 22 18 13 11 10 10 12 13 12 9 6 5 4 4 3 2 2 1 0 0
0 0 0 0 0 1 2 4 8 16 25 34 42 47 48 48 50 53 51 47 48 53 54 53 50 47 41 35 31 28 23 15 10 9 8 9 12 14 13 10 6 4 3 2 2 3 2 1 0
0 0 0 0 0 1 2 3 4 9 17 27 39 49 52 54 56 57 54 50 52 55 55 54 53 50 44 39 36 33 26 16 11 8 7 8 12 16 17 13 8 5 3 1 1 2 3 2 1
0 0 0 0 0 0 1 2 2 6 15 26 38 47 53 56 57 59 57 54 53 53 53 52 52 51 47 41 38 35 27 17 10 8 7 8 11 15 17 14 10 6 2 0 0 1 2 2 1
0 0 0 0 0 0 0 0 0 5 14 25 35 43 49 53 54 54 53 49 48 48 49 49 49 50 46 41 37 30 21 13 8 6 7 7 7 8 11 11 9 6 4 2 1 0 1 1 0
0 0 0 0 0 0 0 0 1 5 13 22 31 39 45 49 51 50 46 43 42 42 45 47 47 46 43 37 32 24 15 9 6 6 6 5 4 4 5 5 5 5 5 4 3 1 0 0 0
0 0 0 0 0 0 0 0 2 6 12 19 27 35 40 45 50 49 45 42 42 42 44 46 46 42 37 31 25 19 12 8 5 5 4 4 3 3 2 2 2 3 4 4 3 2 0 0 0
0 0 0 0 0 0 0 1 5 9 12 16 22 29 34 38 44 46 44 44 43 43 45 44 42 37 32 26 21 17 12 8 5 3 3 2 1 1 1 0 1 1 1 1 1 1 0 0 0
0 0 0 0 0 0 0 2 6 10 12 14 19 24 28 30 35 39 41 41 39 39 41 40 35 30 26 22 17 13 11 8 5 3 2 1 1 0 0 0 0 0 0 0 0 0 0 0 0
0 0 0 0 0 0 0 1 5 9 12 14 17 21 24 27 33 36 35 33 30 31 33 33 28 24 20 16 12 8 7 7 5 2 1 0 0 0 0 0 1 1 1 0 0 0 0 0 0
0 0 0 0 0 0 0 0 3 7 11 13 17 20 23 29 33 33 29 27 26 26 27 27 25 21 17 12 8 4 4 4 4 2 1 0 0 0 0 0 1 1 1 1 0 0 0 0 0
0 0 0 0 0 0 0 0 2 7 11 13 17 20 23 28 30 29 26 26 25 25 25 25 25 21 16 11 7 4 3 3 4 3 1 0 0 0 0 0 0 1 1 1 1 1 1 1 0
Wind_Speed
3 3 1 1 4 5 2 3 5 9 7 7 10 10 9 6 5 7 6 15 18 15 12 15 17 17 17 16 16 16 16 16 16 15 15 15 16 16 16 15 15 15 15 15 15 15 15 15 15
2 2 1 3 6 4 2 4 9 10 10 11 11 11 9 9 10 11 9 16 18 15 11 13 18 17 17 16 15 15 15 15 15 15 15 15 15 15 15 15 14 14 14 14 14 14 14 14 14
2 1 3 4 3 2 1 5 8 9 9 9 7 7 7 9 10 7 11 18 15 13 10 14 19 18 17 16 15 15 15 15 15 14 14 14 14 14 14 14 14 14 14 13 13 13 13 13 12
1 3 4 4 1 3 4 3 7 11 10 9 9 7 6 7 8 14 19 18 16 12 10 13 18 18 17 16 15 15 15 14 14 14 14 14 14 14 14 14 13 13 13 12 12 12 12 11 11
3 4 4 1 2 3 5 5 6 9 6 7 11 9 6 6 19 21 19 18 16 12 9 12 18 18 17 16 16 15 14 14 14 14 14 13 13 13 13 13 13 13 12 11 11 11 10 10 9
3 4 3 1 1 1 4 6 8 12 13 10 11 9 5 13 20 19 18 16 15 14 10 11 17 18 17 16 16 15 15 14 14 14 13 13 13 12 12 13 12 12 11 11 10 9 9 8 7
4 3 1 3 1 3 4 5 8 11 11 7 9 8 7 13 17 18 16 15 14 13 11 8 10 13 16 16 15 15 15 14 14 13 13 13 13 12 12 12 12 11 10 10 9 8 7 7 6
4 4 1 2 2 2 4 5 8 11 8 9 8 10 11 14 17 17 15 14 12 10 10 8 7 7 7 9 15 15 15 14 14 13 13 13 13 12 12 10 11 11 10 9 8 7 6 5 4
3 4 2 4 4 3 4 8 5 6 11 6 4 8 17 20 20 18 15 12 11 11 8 8 8 7 7 7 12 12 14 13 12 11 13 11 5 5 6 9 11 10 10 8 7 6 4 3 3
4 3 6 6 5 5 7 10 8 5 9 7 9 12 17 19 20 19 18 16 14 13 11 9 9 9 8 8 6 4 6 6 5 4 6 4 4 3 6 8 11 10 9 8 6 5 3 1 1
4 6 5 4 5 6 6 5 5 10 7 12 17 18 18 17 17 17 17 17 16 15 14 11 11 10 8 5 6 3 3 3 4 5 5 4 4 3 3 3 4 4 5 3 3 2 1 1 1
3 7 5 3 3 4 6 6 5 7 10 15 20 20 17 17 17 16 17 16 15 15 14 12 12 10 8 7 6 5 4 4 4 5 6 4 3 3 3 2 3 2 2 2 2 1 2 2 2
3 5 5 3 1 4 5 5 6 4 9 13 16 17 15 15 13 12 13 14 14 14 14 14 12 11 9 8 6 7 6 5 5 5 5 6 5 5 4 3 3 3 2 3 2 2 2 2 2
5 6 6 2 3 3 5 4 6 6 14 15 14 13 14 14 13 11 12 12 13 14 14 13 13 12 10 8 6 6 6 5 5 5 6 7 5 5 5 4 4 3 3 3 3 3 2 2 2
4 6 7 4 2 2 6 2 5 11 16 16 14 12 12 11 11 12 13 13 13 13 13 13 13 11 11 10 8 6 6 6 5 5 6 7 6 6 6 5 4 4 4 4 3 3 1 1 1
5 4 4 7 2 3 6 4 6 14 18 15 15 13 12 11 12 12 12 11 11 12 12 12 12 11 10 8 7 5 6 6 5 5 5 7 7 7 6 5 4 4 4 3 3 2 2 1 1
4 2 5 8 4 4 5 6 8 14 17 16 14 14 13 11 10 11 13 12 11 12 12 11 10 11 9 8 6 5 5 5 5 5 5 6 6 7 6 5 4 5 4 3 4 2 2 2 2
4 4 5 7 6 2 4 5 10 13 16 17 15 13 12 12 12 12 12 12 11 11 11 10 10 10 8 6 4 3 3 4 4 5 5 6 5 7 6 4 5 4 3 3 3 3 2 2 2
5 6 9 10 8 2 5 6 9 12 13 13 12 12 12 12 10 10 11 11 11 10 11 11 10 9 7 5 4 4 4 3 3 4 6 6 6 6 6 5 4 4 4 5 5 3 3 2 2
7 8 9 9 6 1 4 4 5 8 13 15 15 14 13 10 9 10 10 10 11 12 11 10 10 10 9 6 5 3 3 3 4 4 5 7 7 7 7 6 5 5 4 4 4 3 3 2 2
8 7 7 6 5 4 3 3 2 2 5 8 10 10 12 14 14 14 13 12 11 12 12 11 10 9 8 7 4 3 2 2 2 3 4 6 7 8 6 7 6 5 5 5 5 4 5 3 2
8 8 6 5 1 3 2 1 5 3 2 7 10 9 10 10 9 12 12 12 13 12 10 10 10 9 8 8 7 7 5 5 5 4 4 5 7 7 7 6 7 6 5 5 6 5 4 4 3
9 8 4 2 1 2 3 2 7 2 3 6 10 11 10 10 10 10 11 12 10 10 9 9 8 8 8 8 8 7 5 4 3 3 5 6 5 6 7 7 6 6 5 6 5 5 5 4 4
7 2 5 6 6 1 3 3 6 4 7 8 8 10 10 9 8 7 7 8 7 8 8 8 8 7 7 7 7 8 7 6 5 5 5 5 4 5 6 7 7 6 6 6 6 6 6 5 5
3 5 4 5 5 5 4 2 8 7 5 8 9 9 8 8 8 7 8 8 8 9 9 8 8 7 7 7 7 7 8 7 8 6 6 5 4 4 6 7 6 6 6 6 6 6 6 6 5
5 10 9 5 4 5 3 3 6 5 1 2 6 7 7 7 7 8 8 8 8 9 9 8 8 7 7 7 7 6 6 5 5 6 5 6 5 5 6 6 6 6 6 6 5 4 5 5 5
6 5 10 8 3 1 4 3 5 3 3 3 4 6 7 7 7 7 7 7 7 8 8 8 8 6 6 6 5 4 5 5 5 5 5 4 4 4 6 6 6 6 6 6 5 4 5 4 5
9 8 7 6 5 3 4 3 4 3 2 3 3 4 4 6 7 7 7 6 6 6 6 6 6 6 5 5 5 4 4 4 4 4 4 4 4 4 5 6 5 5 5 5 5 4 4 4 4
4 4 6 6 6 7 3 6 6 7 6 6 6 6 8 8 9 7 6 5 5 5 5 6 5 5 4 5 4 3 3 3 2 2 3 3 3 3 4 4 5 5 5 5 5 4 4 4 4
8 8 9 7 5 5 4 7 3 4 5 7 7 6 7 9 8 7 6 5 5 5 5 5 5 5 5 5 4 3 2 2 2 2 2 2 2 2 2 3 4 4 4 4 5 5 4 5 4
Wind_Direction
219 227 180 45 49 49 79 103 98 81 58 62 79 85 86 66 110 131 130 135 134 138 141 139 136 133 128 125 122 119 115 113 112 112 112 112 112 112 111 110 109 108 107 107 106 107 107 108 109
214 190 62 47 66 56 34 79 82 93 118 103 82 82 77 71 84 105 119 135 134 137 138 140 138 135 132 129 127 124 122 119 118 118 117 117 117 116 115 113 112 111 110 110 110 110 110 110 109
220 125 76 60 74 130 78 89 99 101 103 95 91 71 77 107 111 111 134 136 132 133 136 143 139 137 135 133 131 129 127 125 124 123 122 121 121 120 119 117 116 116 115 114 113 113 111 110 110
96 60 58 72 153 188 158 136 113 104 82 75 92 74 73 109 114 129 136 135 131 131 135 144 140 139 138 137 135 133 132 130 128 127 124 125 124 123 123 122 120 118 118 117 117 116 115 112 109
77 73 58 58 202 182 150 144 118 104 93 94 94 89 64 78 119 131 137 136 134 134 136 141 141 141 141 141 139 137 135 133 132 130 128 128 127 126 126 125 124 123 122 122 121 119 117 113 107
56 66 63 296 188 137 139 137 107 109 114 107 103 101 87 127 130 138 138 138 138 139 138 142 144 144 145 145 143 141 140 138 137 135 133 133 132 131 131 131 130 128 128 127 125 124 120 114 105
119 102 185 236 213 125 156 135 123 132 133 136 126 104 119 144 141 140 138 136 138 140 140 142 147 148 149 148 147 147 145 144 143 141 139 138 137 137 136 136 136 134 134 133 132 130 125 120 112
145 103 311 236 130 131 154 120 132 131 127 130 132 131 152 157 143 137 134 134 137 141 144 144 144 145 147 150 152 151 150 149 149 148 147 145 145 143 142 141 142 141 141 142 142 139 135 129 120
115 84 217 206 161 175 152 116 123 117 128 144 133 139 150 145 140 137 135 136 144 149 152 151 149 149 147 152 160 156 156 157 155 155 155 147 137 139 145 152 151 150 151 154 155 153 153 143 121
119 160 218 205 188 172 157 138 144 121 119 110 104 117 138 141 145 147 150 154 158 160 164 164 161 160 160 165 153 155 157 156 154 155 150 142 145 159 160 166 161 160 161 165 173 178 182 162 88
183 209 232 217 198 168 150 147 145 134 143 154 147 147 150 148 152 155 160 163 165 166 168 170 169 168 170 159 154 161 153 154 161 165 160 157 155 165 159 157 163 164 165 163 182 193 227 239 203
257 265 247 220 185 161 155 150 138 163 174 164 153 153 156 157 161 163 164 167 166 168 172 171 172 173 173 162 167 168 165 170 176 179 175 164 160 164 165 166 167 165 162 172 178 205 239 253 234
274 284 284 253 209 170 137 147 141 147 136 142 148 152 159 160 161 163 162 164 166 171 174 173 173 175 172 167 177 174 175 180 182 180 180 170 165 170 173 173 176 183 178 184 189 206 230 241 222
275 297 299 276 251 182 139 143 123 148 138 144 155 163 166 164 162 158 160 165 169 172 173 172 175 175 171 174 179 175 177 179 179 183 182 177 173 172 173 176 182 192 192 194 193 201 212 225 195
319 328 323 296 243 197 117 88 165 156 146 153 168 175 172 169 166 167 168 169 169 170 169 171 174 174 173 174 178 174 177 176 178 184 182 178 175 172 171 176 185 193 190 190 194 205 204 206 183
353 0 316 288 249 228 132 201 192 158 154 162 174 178 178 176 177 174 173 172 167 163 167 173 174 172 173 172 170 164 169 173 178 179 179 179 175 171 168 174 186 186 179 179 183 180 175 197 185
0 319 281 292 261 209 153 187 183 167 161 167 175 180 180 178 182 180 177 174 170 166 168 171 166 169 171 167 164 158 162 167 173 175 175 177 177 174 169 177 183 177 174 179 192 174 170 186 201
252 282 293 284 277 195 181 190 175 177 170 173 177 176 179 184 189 181 177 176 171 168 168 169 166 169 165 157 150 148 159 171 172 176 178 178 179 178 172 177 180 170 166 174 177 167 170 181 191
253 282 287 284 283 206 184 177 178 178 172 173 178 180 184 190 189 175 170 172 169 169 171 172 171 171 165 164 166 166 176 180 176 184 182 182 186 182 178 180 176 170 175 183 176 161 169 191 152
260 274 282 294 301 150 174 178 174 173 176 178 179 184 183 179 179 173 167 174 176 176 177 175 176 175 176 177 174 169 163 178 182 187 191 190 193 188 188 179 181 180 176 182 182 165 163 193 161
263 248 257 271 312 11 84 10 336 245 169 167 174 177 175 180 181 178 175 181 183 181 178 178 179 178 178 169 155 145 135 141 167 188 197 199 198 194 190 184 184 186 182 189 192 176 168 183 201
258 251 251 267 350 308 83 241 287 260 177 168 174 177 177 178 182 181 178 180 184 183 176 174 176 176 175 169 171 174 182 192 198 193 194 201 201 197 192 189 190 190 189 191 197 186 174 165 189
232 254 258 260 126 12 8 119 280 296 194 191 182 180 176 175 182 182 179 179 179 174 169 170 170 177 179 181 181 183 194 200 194 189 191 200 203 200 194 193 192 192 193 197 196 184 182 178 181
224 303 12 43 67 5 260 156 269 247 210 194 188 180 172 174 179 173 170 164 165 165 167 168 169 180 183 185 187 190 194 193 192 198 200 202 207 208 203 197 196 196 195 200 199 192 189 191 187
163 96 30 359 11 256 266 167 248 256 216 187 177 174 170 169 165 159 161 162 159 164 169 171 173 182 185 187 193 197 198 195 198 201 201 200 203 208 212 207 200 200 202 201 195 194 197 194 192
185 141 156 185 217 275 324 222 262 282 247 159 160 159 156 163 161 164 163 159 161 166 169 170 175 181 184 190 198 199 198 196 198 199 198 200 202 207 206 205 202 200 202 205 193 194 202 199 201
166 171 165 139 175 249 289 291 322 13 54 93 128 140 156 165 165 162 156 155 157 162 167 169 174 179 184 190 191 193 194 195 201 201 200 203 204 207 202 202 205 205 204 204 192 198 204 195 199
166 163 109 121 157 235 280 260 225 224 184 131 134 153 162 161 156 156 155 157 159 159 158 159 163 173 177 175 179 183 192 199 201 194 194 198 205 206 197 204 201 205 204 198 188 194 195 188 197
164 145 128 136 155 159 224 264 221 199 183 167 173 169 167 159 152 155 153 153 146 142 148 153 159 162 166 169 172 176 186 190 180 181 191 195 200 200 199 198 196 198 200 194 190 195 187 187 193
169 174 149 155 204 161 167 260 264 165 167 165 161 151 147 146 142 142 139 131 132 138 145 151 159 168 171 168 162 168 175 167 162 180 195 185 187 196 200 191 186 191 190 187 186 193 188 183 188